Regional Weather Roundup
Issued by NWS

Home | Current Version | Previous Version | Graphics & Text | Print | Product List | Glossary On
Versions: 1 2 3 4 5 6 7 8 9 10 11 12 13 14 15 16 17 18 19 20 21 22 23 24 25 26 27 28 29 30 31 32 33 34 35 36 37 38 39 40 41 42 43 44 45 46 47 48 49 50
000
ASUS43 KFSD 250110
RWRSD

WEATHER ROUNDUP FOR SOUTH DAKOTA
NATIONAL WEATHER SERVICE SIOUX FALLS SD
800 PM CDT MON JUL 24 2017

NOTE: "FAIR" INDICATES FEW OR NO CLOUDS BELOW 12,000 FEET WITH NO
SIGNIFICANT WEATHER AND/OR OBSTRUCTIONS TO VISIBILITY.


SDZ001>005-009-010-012>017-250200-
NORTHWEST AND NORTH CENTRAL SOUTH DAKOTA

CITY           SKY/WX    TMP DP  RH WIND       PRES   REMARKS
BUFFALO          N/A     94  51  23 N8        29.75R
FAITH            N/A     91  63  39 E14       29.80R
MOBRIDGE       SUNNY     82  68  62 SE20G25   29.78F
$$

SDZ012>016-024>037-041>051-057-063-072>074-250200-
SOUTHWEST AND SOUTH CENTRAL SOUTH DAKOTA

CITY           SKY/WX    TMP DP  RH WIND       PRES   REMARKS
RAPID CTY ARPT SUNNY     95  48  20 E7        29.83R
PIERRE         SUNNY     93  56  28 SE14      29.70R
CUSTER         SUNNY     86  43  22 E20       30.03R
ELLSWORTH AFB  SUNNY     95  48  20 E7        29.83S
PHILIP         SUNNY     98  57  25 NE18      29.72R HX  97
PINE RIDGE     SUNNY     98  43  15 N8        29.81R
SPEARFISH      LGT RAIN  91  50  24 E13       29.89S
WINNER         TSTM      76  66  71 S36G51    29.79F
$$

SDZ004>011-016>023-039-040-250200-
NORTHEAST SOUTH DAKOTA

CITY           SKY/WX    TMP DP  RH WIND       PRES   REMARKS
ABERDEEN       PTSUNNY   75  68  78 E15       29.86S
WATERTOWN      PTCLDY    76  64  66 SE10G20   29.93R
BROOKINGS      PTCLDY    77  66  68 SE14G23   29.93S
SISSETON         N/A     72  67  84 SE12      29.90F
$$

SDZ017-020-022-023-036>040-048>070-250200-
SOUTHEAST SOUTH DAKOTA

CITY           SKY/WX    TMP DP  RH WIND       PRES   REMARKS
SIOUX FALLS    MOCLDY    80  65  59 SE13      29.92F
HURON          PTSUNNY   81  66  60 SE24G31   29.80F
CHAMBERLAIN    CLOUDY    91  71  52 SE12G22   29.76S HX  97
MITCHELL       MOCLDY    84  67  56 SE20G32   29.81F
YANKTON        CLEAR     82  67  60 SE18      29.88S
$$

ABBREVIATIONS USED IN REMARKS
   TC - TEMPERATURE IN CELSIUS
  WCI - WIND CHILL INDEX
   HX - HEAT INDEX
  VSB - VISIBILITY





USA.gov is the U.S. government's official web portal to all federal, state and local government web resources and services.